| time (UTC) | temp F | wind direction | speed MPH | gust MPH | rain 1hr in | rain 24hr in | rain mn in | humidity % | barometer mb |
| 20260506153048 | 69 | 0.0 | 0.0 | 0.00 | 0.00 | 0.00 | 51 | 1006.8 | |
| 20260506151048 | 71 | 0.0 | 0.0 | 0.00 | 0.00 | 0.00 | 51 | 1006.7 | |
| 20260506145047 | 67 | 0.0 | 0.0 | 0.00 | 0.00 | 0.00 | 55 | 1006.7 | |
| 20260506143047 | 69 | 0.0 | 0.0 | 0.00 | 0.00 | 0.00 | 53 | 1006.6 | |
| 20260506141047 | 69 | 0.0 | 0.0 | 0.00 | 0.00 | 0.00 | 50 | 1006.7 | |
| 20260506135046 | 70 | 0.0 | 0.0 | 0.00 | 0.00 | 0.00 | 50 | 1006.9 | |
| 20260506133046 | 71 | 0.0 | 0.0 | 0.00 | 0.00 | 0.00 | 47 | 1006.9 | |
| 20260506131046 | 71 | 0.0 | 0.0 | 0.00 | 0.00 | 0.00 | 51 | 1006.9 | |
| 20260506125045 | 72 | 0.0 | 0.0 | 0.00 | 0.00 | 0.00 | 49 | 1006.9 | |
| 20260506123045 | 72 | 0.0 | 0.0 | 0.00 | 0.00 | 0.00 | 51 | 1006.7 | |
| 20260506121045 | 72 | 0.0 | 0.0 | 0.00 | 0.00 | 0.00 | 55 | 1006.5 | |
| 20260506115044 | 72 | 0.0 | 0.0 | 0.00 | 0.00 | 0.00 | 55 | 1006.4 | |
| 20260506113044 | 71 | 0.0 | 0.0 | 0.00 | 0.00 | 0.00 | 55 | 1006.6 | |
| 20260506111044 | 68 | 0.0 | 0.0 | 0.00 | 0.00 | 0.00 | 60 | 1006.4 | |
| 20260506105043 | 70 | 0.0 | 0.0 | 0.00 | 0.00 | 0.00 | 57 | 1006.5 | |
| 20260506103043 | 71 | 0.0 | 0.0 | 0.00 | 0.00 | 0.00 | 56 | 1006.5 | |
| 20260506101043 | 73 | 0.0 | 0.0 | 0.00 | 0.00 | 0.00 | 55 | 1006.5 | |
| 20260506095043 | 70 | 0.0 | 0.0 | 0.00 | 0.00 | 0.00 | 58 | 1006.5 | |
| 20260506093042 | 72 | 0.0 | 0.0 | 0.00 | 0.00 | 0.00 | 60 | 1006.4 | |
| 20260506091042 | 66 | 0.0 | 0.0 | 0.00 | 0.00 | 0.00 | 65 | 1004.0 | |
| 20260506085042 | 67 | 0.0 | 0.0 | 0.00 | 0.00 | 0.00 | 66 | 1001.2 | |
| 20260506083041 | 65 | 0.0 | 0.0 | 0.00 | 0.00 | 0.00 | 70 | 1010.5 | |
| 20260506081041 | 68 | 0.0 | 0.0 | 0.00 | 0.00 | 0.00 | 86 | 1009.2 | |
| 20260506073040 | 56 | 0.0 | 0.0 | 0.00 | 0.00 | 0.00 | 99 | ||
| 20260506071040 | 56 | 0.0 | 0.0 | 0.00 | 0.00 | 0.00 | 99 | ||
| 20260506061036 | 56 | 0.0 | 0.0 | 0.00 | 0.00 | 0.00 | 99 | 1004.2 | |
| 20260506051035 | 55 | 0.0 | 0.0 | 0.00 | 0.00 | 0.00 | 99 | 1004.6 | |
| 20260506045035 | 53 | 0.0 | 0.0 | 0.00 | 0.00 | 0.00 | 99 | 1004.5 | |
| 20260506043035 | 52 | 0.0 | 0.0 | 0.00 | 0.00 | 0.00 | 99 | 1004.8 | |
| 20260506041034 | 53 | 0.0 | 0.0 | 0.00 | 0.00 | 0.00 | 99 | 1005.3 | |
| 20260506035034 | 54 | 0.0 | 0.0 | 0.00 | 0.00 | 0.00 | 88 | 1005.6 | |
| 20260506033034 | 52 | 0.0 | 0.0 | 0.00 | 0.00 | 0.00 | 88 | 1005.3 | |
| 20260506031033 | 50 | 0.0 | 0.0 | 0.00 | 0.00 | 0.00 | 83 | 1005.3 | |
| 20260506025033 | 50 | 0.0 | 0.0 | 0.00 | 0.00 | 0.00 | 86 | 1005.9 | |
| 20260506023033 | 51 | 0.0 | 0.0 | 0.00 | 0.00 | 0.00 | 86 | 1006.5 | |
| 20260506021033 | 50 | 0.0 | 0.0 | 0.00 | 0.00 | 0.00 | 87 | 1006.6 | |
| 20260506015032 | 51 | 0.0 | 0.0 | 0.00 | 0.00 | 0.00 | 82 | 1007.1 | |
| 20260506013032 | 55 | 0.0 | 0.0 | 0.00 | 0.00 | 0.00 | 80 | 1006.8 | |
| 20260506011032 | 56 | 0.0 | 0.0 | 0.00 | 0.00 | 0.00 | 81 | 1007.0 | |
| 20260506005031 | 57 | 0.0 | 0.0 | 0.00 | 0.00 | 0.00 | 76 | 1007.1 | |
| 20260506003031 | 57 | 0.0 | 0.0 | 0.00 | 0.00 | 0.00 | 77 | 1007.4 | |
| 20260506001033 | 59 | 0.0 | 0.0 | 0.00 | 0.00 | 0.00 | 73 | 1007.3 | |
| 20260505235030 | 62 | 0.0 | 0.0 | 0.00 | 0.00 | 0.00 | 69 | 1007.6 | |
| 20260505233030 | 62 | 0.0 | 0.0 | 0.00 | 0.00 | 0.00 | 69 | 1008.2 | |
| 20260505231030 | 61 | 0.0 | 0.0 | 0.00 | 0.00 | 0.00 | 69 | 1008.5 | |
| 20260505225029 | 61 | 0.0 | 0.0 | 0.00 | 0.00 | 0.00 | 68 | 1008.6 | |
| 20260505223029 | 60 | 0.0 | 0.0 | 0.00 | 0.00 | 0.00 | 70 | 1008.8 | |
| 20260505221029 | 61 | 0.0 | 0.0 | 0.00 | 0.00 | 0.00 | 68 | 1009.0 | |
| 20260505215028 | 63 | 0.0 | 0.0 | 0.00 | 0.00 | 0.00 | 66 | 1009.0 | |
| 20260505213028 | 63 | 0.0 | 0.0 | 0.00 | 0.00 | 0.00 | 64 | 1009.2 | |
| 20260505211028 | 63 | 0.0 | 0.0 | 0.00 | 0.00 | 0.00 | 64 | 1009.3 | |
| 20260505205028 | 63 | 0.0 | 0.0 | 0.00 | 0.00 | 0.00 | 65 | 1009.5 | |
| 20260505203027 | 62 | 0.0 | 0.0 | 0.00 | 0.00 | 0.00 | 64 | 1009.7 | |
| 20260505201027 | 63 | 0.0 | 0.0 | 0.00 | 0.00 | 0.00 | 64 | 1009.6 | |
| 20260505195027 | 63 | 0.0 | 0.0 | 0.00 | 0.00 | 0.00 | 64 | 1009.7 | |
| 20260505193026 | 63 | 0.0 | 0.0 | 0.00 | 0.00 | 0.00 | 63 | 1009.6 | |
| 20260505191026 | 63 | 0.0 | 0.0 | 0.00 | 0.00 | 0.00 | 64 | 1009.6 | |
| 20260505185026 | 63 | 0.0 | 0.0 | 0.00 | 0.00 | 0.00 | 63 | 1009.3 | |
| 20260505183025 | 63 | 0.0 | 0.0 | 0.00 | 0.00 | 0.00 | 64 | 1009.5 | |
| 20260505181025 | 62 | 0.0 | 0.0 | 0.00 | 0.00 | 0.00 | 65 | 1009.5 | |
| 20260505175025 | 64 | 0.0 | 0.0 | 0.00 | 0.00 | 0.00 | 62 | 1009.5 | |
| 20260505173024 | 64 | 0.0 | 0.0 | 0.00 | 0.00 | 0.00 | 61 | 1009.3 | |
| 20260505171024 | 64 | 0.0 | 0.0 | 0.00 | 0.00 | 0.00 | 61 | 1009.2 | |
| 20260505165024 | 66 | 0.0 | 0.0 | 0.00 | 0.00 | 0.00 | 58 | 1009.4 | |
| 20260505163023 | 66 | 0.0 | 0.0 | 0.00 | 0.00 | 0.00 | 57 | 1009.3 | |
| 20260505161023 | 66 | 0.0 | 0.0 | 0.00 | 0.00 | 0.00 | 56 | 1009.4 |